TimeEST,TemperatureF,Dew PointF,Humidity,Sea Level PressureIn,VisibilityMPH,Wind Direction,Wind SpeedMPH,Gust SpeedMPH,PrecipitationIn,Events,Conditions,WindDirDegrees,DateUTC
12:54 AM,45.0,42.1,90,30.00,10.0,SW,4.6,-,N/A,,Clear,230,2013-02-06 05:54:00
2:54 AM,41.0,39.9,96,30.00,5.0,Calm,Calm,-,N/A,,Clear,0,2013-02-06 07:54:00
3:54 AM,39.0,37.9,96,30.01,4.0,Calm,Calm,-,N/A,,Clear,0,2013-02-06 08:54:00
4:54 AM,41.0,39.0,93,30.04,4.0,Calm,Calm,-,N/A,,Clear,0,2013-02-06 09:54:00
5:03 AM,37.4,37.4,100,30.04,1.8,Calm,Calm,-,N/A,,Clear,0,2013-02-06 10:03:00
5:10 AM,37.4,35.6,93,30.04,1.2,Calm,Calm,-,N/A,,Clear,0,2013-02-06 10:10:00
5:21 AM,37.4,37.4,100,30.04,0.8,Calm,Calm,-,N/A,,Clear,0,2013-02-06 10:21:00
5:54 AM,36.0,36.0,100,30.06,0.2,Calm,Calm,-,N/A,Fog,Fog,0,2013-02-06 10:54:00
6:37 AM,35.6,33.8,93,30.07,2.0,Calm,Calm,-,N/A,,Clear,0,2013-02-06 11:37:00
6:47 AM,37.4,35.6,93,30.08,1.2,Calm,Calm,-,N/A,,Clear,0,2013-02-06 11:47:00
6:49 AM,37.4,35.6,93,30.08,0.8,Calm,Calm,-,N/A,,Clear,0,2013-02-06 11:49:00
6:54 AM,36.0,36.0,100,30.08,0.2,Calm,Calm,-,N/A,Fog,Fog,0,2013-02-06 11:54:00
7:33 AM,35.6,35.6,100,30.09,1.2,Calm,Calm,-,N/A,,Clear,0,2013-02-06 12:33:00
7:35 AM,35.6,35.6,100,30.09,3.0,Calm,Calm,-,N/A,,Clear,0,2013-02-06 12:35:00
7:45 AM,37.4,35.6,93,30.10,1.5,Calm,Calm,-,N/A,,Clear,0,2013-02-06 12:45:00
7:56 AM,35.6,35.6,100,30.11,2.0,Calm,Calm,-,N/A,,Clear,0,2013-02-06 12:56:00
8:04 AM,35.6,35.6,100,30.11,3.0,Calm,Calm,-,N/A,,Clear,0,2013-02-06 13:04:00
8:15 AM,39.2,39.2,100,30.12,2.5,Calm,Calm,-,N/A,,Clear,0,2013-02-06 13:15:00
8:54 AM,48.0,46.0,93,30.14,4.0,WNW,4.6,-,N/A,,Clear,290,2013-02-06 13:54:00
10:54 AM,59.0,43.0,55,30.16,10.0,NNE,9.2,-,N/A,,Clear,20,2013-02-06 15:54:00
11:54 AM,61.0,39.9,46,30.15,10.0,NE,3.5,-,N/A,,Clear,40,2013-02-06 16:54:00
12:54 PM,63.0,37.9,40,30.14,10.0,Calm,Calm,-,N/A,,Clear,0,2013-02-06 17:54:00
1:54 PM,64.0,37.0,37,30.12,10.0,WNW,3.5,-,N/A,,Clear,300,2013-02-06 18:54:00
2:54 PM,66.0,37.0,34,30.12,10.0,NW,5.8,-,N/A,,Clear,320,2013-02-06 19:54:00
3:54 PM,64.9,37.0,36,30.12,10.0,WSW,5.8,-,N/A,,Clear,250,2013-02-06 20:54:00
4:54 PM,63.0,36.0,37,30.12,7.0,WNW,4.6,-,N/A,,Clear,300,2013-02-06 21:54:00
5:54 PM,57.9,37.0,46,30.14,8.0,Calm,Calm,-,N/A,,Clear,0,2013-02-06 22:54:00
6:54 PM,50.0,39.9,68,30.17,9.0,Calm,Calm,-,N/A,,Clear,0,2013-02-06 23:54:00
7:54 PM,46.0,37.9,73,30.19,8.0,Calm,Calm,-,N/A,,Clear,0,2013-02-07 00:54:00
8:54 PM,45.0,37.0,74,30.19,8.0,Calm,Calm,-,N/A,,Clear,0,2013-02-07 01:54:00
9:54 PM,46.9,37.0,68,30.22,10.0,NE,4.6,-,N/A,,Clear,50,2013-02-07 02:54:00
10:54 PM,43.0,36.0,76,30.22,10.0,Calm,Calm,-,N/A,,Clear,0,2013-02-07 03:54:00
11:54 PM,43.0,35.1,74,30.24,10.0,East,3.5,-,N/A,,Clear,90,2013-02-07 04:54:00